GEFSSE_prec_meanprecacc_096.txt.gz
Total_Precipitation_Accumulation
0.00 0.02 0.08 0.12 0.16 0.12 0.09 0.06 0.04 0.04 0.04 0.05 0.06 0.06 0.07 0.06 0.06 0.05 0.05 0.06 0.08 0.12 0.18 0.22 0.27 0.40 0.39 0.24 0.13 0.05 0.02 0.01 0.01 0.01 0.01 0.01 0.02 0.04 0.04 0.04 0.05 0.06 0.08
0.00 0.02 0.06 0.10 0.16 0.13 0.10 0.08 0.04 0.03 0.03 0.04 0.05 0.07 0.07 0.06 0.05 0.05 0.07 0.08 0.10 0.16 0.20 0.24 0.30 0.35 0.30 0.20 0.12 0.03 0.01 0.00 0.00 0.00 0.00 0.00 0.01 0.02 0.02 0.03 0.05 0.09 0.10
0.00 0.02 0.05 0.09 0.14 0.13 0.10 0.07 0.03 0.02 0.03 0.04 0.05 0.07 0.08 0.06 0.05 0.06 0.07 0.10 0.13 0.16 0.20 0.25 0.26 0.24 0.20 0.17 0.10 0.03 0.01 0.00 0.00 0.00 0.01 0.02 0.03 0.05 0.05 0.05 0.07 0.09 0.11
0.00 0.01 0.04 0.07 0.11 0.12 0.09 0.06 0.03 0.03 0.03 0.04 0.05 0.07 0.09 0.07 0.06 0.07 0.08 0.08 0.10 0.12 0.15 0.17 0.13 0.10 0.06 0.06 0.05 0.03 0.01 0.00 0.00 0.01 0.02 0.03 0.05 0.09 0.09 0.08 0.10 0.11 0.12
0.00 0.01 0.04 0.06 0.09 0.11 0.08 0.06 0.04 0.03 0.03 0.03 0.04 0.06 0.10 0.11 0.09 0.07 0.07 0.06 0.06 0.07 0.08 0.07 0.05 0.02 0.01 0.01 0.02 0.02 0.01 0.01 0.00 0.01 0.02 0.04 0.06 0.12 0.12 0.11 0.12 0.13 0.15
0.00 0.01 0.05 0.07 0.08 0.08 0.07 0.06 0.04 0.03 0.03 0.02 0.03 0.04 0.09 0.13 0.13 0.08 0.04 0.03 0.03 0.03 0.04 0.03 0.01 0.01 0.00 0.00 0.00 0.01 0.01 0.01 0.00 0.01 0.02 0.04 0.05 0.13 0.13 0.11 0.12 0.13 0.14
0.00 0.02 0.06 0.08 0.09 0.08 0.07 0.06 0.05 0.03 0.02 0.02 0.02 0.03 0.07 0.11 0.12 0.08 0.03 0.02 0.02 0.02 0.02 0.02 0.01 0.00 0.00 0.00 0.00 0.01 0.01 0.01 0.01 0.01 0.03 0.03 0.06 0.13 0.12 0.11 0.12 0.12 0.13
0.01 0.03 0.07 0.10 0.09 0.08 0.07 0.06 0.04 0.03 0.02 0.01 0.02 0.03 0.05 0.07 0.09 0.07 0.03 0.02 0.02 0.02 0.02 0.01 0.01 0.01 0.01 0.01 0.01 0.01 0.01 0.00 0.01 0.01 0.02 0.02 0.05 0.09 0.09 0.09 0.10 0.11 0.11
0.02 0.03 0.07 0.10 0.10 0.10 0.08 0.06 0.05 0.03 0.02 0.02 0.02 0.03 0.03 0.03 0.05 0.05 0.03 0.02 0.02 0.02 0.02 0.02 0.02 0.02 0.02 0.01 0.01 0.01 0.00 0.00 0.00 0.01 0.01 0.02 0.04 0.07 0.08 0.08 0.11 0.13 0.13
0.05 0.05 0.06 0.08 0.09 0.09 0.08 0.06 0.05 0.03 0.02 0.02 0.02 0.01 0.01 0.01 0.02 0.02 0.02 0.02 0.02 0.02 0.02 0.02 0.02 0.02 0.02 0.02 0.01 0.00 0.00 0.00 0.00 0.00 0.01 0.01 0.03 0.06 0.06 0.09 0.11 0.13 0.15
0.09 0.08 0.06 0.07 0.08 0.08 0.07 0.05 0.04 0.03 0.02 0.01 0.01 0.01 0.00 0.01 0.01 0.01 0.01 0.01 0.01 0.01 0.01 0.01 0.02 0.02 0.01 0.01 0.00 0.00 0.00 0.00 0.00 0.00 0.00 0.01 0.03 0.05 0.05 0.07 0.09 0.09 0.10
0.10 0.09 0.08 0.06 0.06 0.07 0.06 0.05 0.04 0.03 0.01 0.01 0.01 0.01 0.01 0.01 0.01 0.01 0.00 0.00 0.01 0.01 0.01 0.01 0.01 0.01 0.00 0.00 0.00 0.00 0.00 0.00 0.00 0.00 0.00 0.01 0.03 0.04 0.04 0.05 0.05 0.06 0.06
0.08 0.08 0.07 0.07 0.06 0.06 0.05 0.04 0.03 0.02 0.02 0.01 0.00 0.00 0.01 0.01 0.00 0.00 0.00 0.00 0.00 0.00 0.01 0.00 0.00 0.00 0.00 0.00 0.00 0.00 0.00 0.00 0.00 0.00 0.00 0.01 0.02 0.03 0.04 0.04 0.04 0.04 0.05
0.10 0.08 0.08 0.08 0.06 0.05 0.04 0.03 0.02 0.02 0.01 0.01 0.00 0.00 0.00 0.00 0.00 0.00 0.00 0.00 0.00 0.00 0.01 0.00 0.00 0.00 0.00 0.00 0.00 0.00 0.00 0.00 0.00 0.00 0.00 0.00 0.01 0.02 0.03 0.03 0.04 0.04 0.05
0.14 0.11 0.09 0.09 0.08 0.06 0.05 0.03 0.02 0.01 0.01 0.01 0.00 0.00 0.00 0.00 0.00 0.00 0.00 0.00 0.00 0.00 0.00 0.00 0.00 0.00 0.00 0.00 0.00 0.00 0.00 0.00 0.00 0.00 0.00 0.00 0.00 0.01 0.02 0.02 0.03 0.04 0.06
0.17 0.16 0.12 0.10 0.11 0.09 0.06 0.03 0.02 0.02 0.01 0.01 0.01 0.01 0.00 0.00 0.00 0.00 0.00 0.00 0.00 0.00 0.00 0.00 0.00 0.00 0.00 0.00 0.00 0.00 0.00 0.00 0.00 0.00 0.00 0.00 0.00 0.00 0.01 0.02 0.03 0.05 0.07
0.16 0.20 0.17 0.17 0.16 0.11 0.08 0.06 0.03 0.03 0.03 0.03 0.03 0.02 0.01 0.01 0.00 0.00 0.00 0.00 0.00 0.00 0.00 0.00 0.00 0.00 0.00 0.00 0.00 0.00 0.00 0.00 0.00 0.00 0.00 0.00 0.00 0.00 0.00 0.01 0.03 0.05 0.07
0.15 0.16 0.20 0.19 0.18 0.16 0.14 0.11 0.08 0.08 0.08 0.07 0.07 0.05 0.03 0.02 0.01 0.02 0.01 0.00 0.00 0.00 0.00 0.00 0.00 0.00 0.00 0.00 0.00 0.00 0.00 0.00 0.00 0.00 0.00 0.00 0.00 0.00 0.00 0.01 0.03 0.04 0.05
0.14 0.15 0.17 0.17 0.16 0.20 0.25 0.26 0.23 0.20 0.16 0.15 0.12 0.08 0.07 0.06 0.04 0.03 0.02 0.02 0.01 0.01 0.01 0.00 0.00 0.01 0.00 0.00 0.00 0.00 0.00 0.00 0.00 0.00 0.00 0.00 0.00 0.00 0.01 0.01 0.01 0.02 0.03
0.14 0.19 0.18 0.18 0.20 0.29 0.38 0.40 0.37 0.33 0.25 0.22 0.18 0.15 0.14 0.11 0.09 0.07 0.05 0.03 0.02 0.01 0.01 0.01 0.01 0.01 0.01 0.01 0.01 0.01 0.00 0.00 0.00 0.00 0.01 0.01 0.01 0.01 0.01 0.01 0.01 0.01 0.02
0.11 0.14 0.16 0.18 0.20 0.25 0.28 0.28 0.27 0.27 0.30 0.31 0.28 0.28 0.25 0.20 0.17 0.13 0.09 0.07 0.05 0.04 0.03 0.03 0.03 0.03 0.03 0.02 0.02 0.02 0.00 0.00 0.00 0.00 0.01 0.00 0.01 0.01 0.01 0.01 0.01 0.02 0.02
0.08 0.09 0.12 0.14 0.19 0.20 0.21 0.27 0.31 0.38 0.44 0.45 0.41 0.34 0.30 0.28 0.26 0.20 0.14 0.13 0.12 0.09 0.06 0.06 0.07 0.06 0.05 0.05 0.06 0.08 0.04 0.01 0.01 0.01 0.01 0.01 0.01 0.01 0.01 0.02 0.02 0.03 0.03
0.05 0.06 0.08 0.11 0.14 0.17 0.22 0.33 0.40 0.44 0.40 0.38 0.32 0.28 0.29 0.31 0.32 0.29 0.25 0.22 0.19 0.17 0.12 0.12 0.14 0.14 0.15 0.15 0.14 0.18 0.15 0.08 0.05 0.02 0.02 0.02 0.02 0.02 0.02 0.02 0.03 0.04 0.05
0.04 0.06 0.08 0.10 0.11 0.13 0.18 0.19 0.23 0.27 0.26 0.26 0.31 0.35 0.38 0.37 0.36 0.34 0.33 0.30 0.28 0.25 0.22 0.24 0.28 0.29 0.28 0.24 0.20 0.18 0.19 0.18 0.20 0.13 0.05 0.04 0.04 0.04 0.05 0.05 0.05 0.06 0.06
0.03 0.05 0.06 0.07 0.08 0.10 0.13 0.14 0.18 0.20 0.23 0.27 0.29 0.31 0.33 0.33 0.33 0.34 0.35 0.36 0.35 0.33 0.35 0.39 0.40 0.40 0.39 0.37 0.33 0.31 0.30 0.27 0.25 0.28 0.17 0.09 0.09 0.10 0.10 0.09 0.09 0.09 0.11
0.01 0.02 0.04 0.05 0.05 0.06 0.09 0.11 0.14 0.16 0.21 0.23 0.24 0.25 0.28 0.31 0.30 0.30 0.32 0.35 0.38 0.40 0.41 0.45 0.49 0.52 0.53 0.53 0.50 0.45 0.44 0.41 0.35 0.39 0.36 0.24 0.21 0.18 0.17 0.17 0.18 0.19 0.20

GEFSSE_prec_meanprecacc_102.txt.gz
Total_Precipitation_Accumulation
0.01 0.02 0.09 0.13 0.17 0.13 0.09 0.06 0.04 0.04 0.04 0.05 0.06 0.07 0.07 0.07 0.07 0.07 0.07 0.09 0.11 0.15 0.21 0.23 0.28 0.41 0.39 0.25 0.13 0.05 0.02 0.01 0.01 0.01 0.01 0.01 0.03 0.05 0.05 0.04 0.05 0.07 0.09
0.00 0.02 0.07 0.11 0.16 0.13 0.10 0.08 0.04 0.03 0.03 0.05 0.06 0.07 0.08 0.07 0.07 0.08 0.10 0.12 0.14 0.19 0.22 0.25 0.30 0.35 0.30 0.20 0.12 0.04 0.01 0.00 0.00 0.00 0.00 0.00 0.02 0.03 0.03 0.03 0.05 0.09 0.11
0.00 0.02 0.05 0.09 0.14 0.13 0.10 0.07 0.03 0.02 0.03 0.04 0.06 0.08 0.09 0.08 0.07 0.08 0.09 0.13 0.15 0.18 0.21 0.26 0.26 0.24 0.20 0.17 0.11 0.03 0.01 0.01 0.00 0.00 0.01 0.02 0.03 0.06 0.05 0.06 0.08 0.10 0.12
0.00 0.02 0.04 0.07 0.11 0.12 0.09 0.06 0.03 0.03 0.03 0.04 0.05 0.08 0.11 0.09 0.08 0.09 0.10 0.10 0.11 0.13 0.16 0.17 0.14 0.10 0.07 0.06 0.06 0.03 0.01 0.01 0.00 0.01 0.02 0.03 0.05 0.10 0.10 0.09 0.11 0.12 0.13
0.00 0.01 0.04 0.06 0.10 0.11 0.08 0.06 0.04 0.04 0.03 0.03 0.04 0.07 0.11 0.12 0.11 0.09 0.08 0.07 0.07 0.07 0.08 0.07 0.05 0.02 0.01 0.01 0.02 0.02 0.01 0.01 0.00 0.01 0.02 0.04 0.06 0.13 0.13 0.12 0.13 0.14 0.15
0.00 0.01 0.05 0.07 0.09 0.09 0.07 0.06 0.05 0.04 0.03 0.02 0.03 0.05 0.10 0.14 0.13 0.08 0.04 0.03 0.03 0.03 0.04 0.03 0.01 0.01 0.00 0.00 0.00 0.01 0.01 0.01 0.00 0.01 0.02 0.04 0.05 0.13 0.13 0.11 0.12 0.13 0.14
0.01 0.02 0.06 0.08 0.09 0.08 0.07 0.07 0.05 0.04 0.03 0.02 0.02 0.03 0.07 0.12 0.12 0.08 0.03 0.02 0.02 0.02 0.02 0.02 0.01 0.01 0.00 0.00 0.00 0.01 0.01 0.01 0.01 0.01 0.03 0.03 0.06 0.13 0.12 0.11 0.12 0.12 0.13
0.01 0.03 0.07 0.11 0.10 0.08 0.08 0.07 0.05 0.03 0.02 0.02 0.02 0.04 0.05 0.07 0.09 0.07 0.03 0.02 0.02 0.02 0.02 0.01 0.01 0.01 0.01 0.01 0.01 0.01 0.01 0.00 0.01 0.01 0.02 0.02 0.05 0.09 0.09 0.09 0.10 0.11 0.11
0.02 0.03 0.07 0.11 0.11 0.10 0.08 0.07 0.05 0.03 0.02 0.02 0.03 0.03 0.03 0.03 0.05 0.05 0.03 0.02 0.02 0.02 0.02 0.02 0.02 0.02 0.02 0.01 0.01 0.01 0.00 0.00 0.00 0.01 0.01 0.02 0.04 0.07 0.08 0.08 0.11 0.13 0.13
0.06 0.05 0.06 0.09 0.10 0.10 0.09 0.07 0.05 0.03 0.02 0.02 0.02 0.02 0.01 0.01 0.02 0.02 0.02 0.02 0.02 0.02 0.02 0.02 0.02 0.02 0.02 0.02 0.01 0.00 0.00 0.00 0.00 0.00 0.01 0.01 0.03 0.06 0.06 0.09 0.11 0.13 0.15
0.10 0.08 0.07 0.07 0.08 0.09 0.07 0.05 0.04 0.03 0.02 0.02 0.01 0.01 0.00 0.01 0.01 0.01 0.01 0.01 0.01 0.01 0.01 0.01 0.02 0.02 0.01 0.01 0.00 0.00 0.00 0.00 0.00 0.00 0.00 0.01 0.03 0.05 0.05 0.07 0.09 0.09 0.10
0.11 0.10 0.08 0.06 0.07 0.07 0.06 0.05 0.04 0.03 0.02 0.01 0.01 0.01 0.01 0.01 0.01 0.01 0.00 0.00 0.01 0.01 0.01 0.01 0.01 0.01 0.00 0.00 0.00 0.00 0.00 0.00 0.00 0.00 0.00 0.01 0.03 0.04 0.04 0.05 0.05 0.06 0.06
0.11 0.10 0.08 0.07 0.07 0.06 0.05 0.04 0.03 0.03 0.02 0.01 0.01 0.01 0.01 0.01 0.00 0.00 0.00 0.00 0.00 0.00 0.01 0.00 0.00 0.00 0.00 0.00 0.00 0.00 0.00 0.00 0.00 0.00 0.00 0.01 0.02 0.03 0.04 0.04 0.04 0.05 0.05
0.18 0.13 0.11 0.09 0.07 0.06 0.04 0.03 0.02 0.02 0.02 0.01 0.00 0.00 0.00 0.00 0.00 0.00 0.00 0.00 0.00 0.00 0.01 0.00 0.00 0.00 0.00 0.00 0.00 0.00 0.00 0.00 0.00 0.00 0.00 0.00 0.01 0.02 0.03 0.03 0.04 0.04 0.05
0.27 0.22 0.18 0.15 0.11 0.07 0.05 0.03 0.02 0.02 0.01 0.01 0.01 0.00 0.00 0.00 0.00 0.00 0.00 0.00 0.00 0.00 0.00 0.00 0.00 0.00 0.00 0.00 0.00 0.00 0.00 0.00 0.00 0.00 0.00 0.00 0.00 0.01 0.02 0.03 0.03 0.04 0.07
0.32 0.30 0.24 0.21 0.18 0.13 0.08 0.04 0.02 0.02 0.02 0.01 0.01 0.01 0.01 0.00 0.00 0.00 0.00 0.00 0.00 0.00 0.00 0.00 0.00 0.00 0.00 0.00 0.00 0.00 0.00 0.00 0.00 0.00 0.00 0.00 0.00 0.00 0.01 0.02 0.03 0.05 0.08
0.30 0.35 0.31 0.29 0.27 0.18 0.13 0.09 0.05 0.04 0.03 0.03 0.03 0.02 0.01 0.01 0.00 0.00 0.00 0.00 0.00 0.00 0.00 0.00 0.00 0.00 0.00 0.00 0.00 0.00 0.00 0.00 0.00 0.00 0.00 0.00 0.00 0.00 0.00 0.02 0.04 0.06 0.08
0.28 0.31 0.36 0.34 0.30 0.26 0.20 0.15 0.11 0.10 0.09 0.08 0.08 0.05 0.04 0.02 0.02 0.02 0.01 0.00 0.00 0.00 0.00 0.00 0.00 0.00 0.00 0.00 0.00 0.00 0.00 0.00 0.00 0.00 0.00 0.00 0.00 0.00 0.00 0.01 0.03 0.05 0.07
0.27 0.28 0.33 0.32 0.29 0.31 0.34 0.33 0.28 0.23 0.17 0.16 0.13 0.09 0.09 0.07 0.06 0.04 0.02 0.02 0.01 0.01 0.01 0.01 0.00 0.01 0.00 0.00 0.00 0.00 0.00 0.00 0.00 0.00 0.00 0.00 0.00 0.00 0.01 0.01 0.01 0.02 0.04
0.27 0.33 0.34 0.38 0.39 0.44 0.51 0.51 0.45 0.38 0.29 0.25 0.20 0.18 0.16 0.13 0.11 0.09 0.06 0.04 0.02 0.02 0.02 0.02 0.01 0.01 0.01 0.01 0.01 0.01 0.00 0.00 0.00 0.00 0.01 0.01 0.01 0.01 0.01 0.01 0.01 0.01 0.02
0.20 0.26 0.31 0.34 0.40 0.43 0.41 0.39 0.36 0.34 0.36 0.36 0.33 0.32 0.28 0.22 0.18 0.14 0.10 0.08 0.06 0.04 0.03 0.04 0.04 0.03 0.03 0.02 0.02 0.02 0.00 0.00 0.01 0.01 0.01 0.01 0.01 0.02 0.02 0.01 0.02 0.02 0.02
0.13 0.17 0.24 0.28 0.35 0.38 0.35 0.40 0.43 0.50 0.54 0.54 0.50 0.42 0.37 0.34 0.30 0.23 0.16 0.14 0.13 0.10 0.07 0.07 0.08 0.07 0.06 0.06 0.07 0.09 0.05 0.02 0.01 0.01 0.02 0.02 0.02 0.02 0.02 0.02 0.02 0.03 0.03
0.09 0.11 0.15 0.21 0.27 0.32 0.39 0.49 0.56 0.60 0.52 0.47 0.42 0.40 0.40 0.41 0.41 0.37 0.31 0.26 0.23 0.20 0.15 0.16 0.17 0.16 0.16 0.17 0.16 0.20 0.17 0.09 0.06 0.03 0.03 0.03 0.03 0.02 0.02 0.02 0.03 0.04 0.05
0.07 0.10 0.13 0.17 0.22 0.27 0.35 0.36 0.39 0.39 0.35 0.34 0.40 0.46 0.48 0.47 0.46 0.44 0.41 0.37 0.34 0.30 0.27 0.29 0.32 0.33 0.33 0.29 0.23 0.21 0.22 0.21 0.22 0.15 0.05 0.04 0.04 0.04 0.05 0.05 0.05 0.06 0.06
0.06 0.09 0.11 0.14 0.19 0.25 0.29 0.32 0.35 0.33 0.34 0.37 0.40 0.41 0.42 0.42 0.42 0.43 0.43 0.44 0.43 0.41 0.42 0.45 0.45 0.45 0.43 0.40 0.36 0.34 0.33 0.30 0.28 0.31 0.19 0.09 0.09 0.10 0.10 0.09 0.09 0.09 0.11
0.04 0.06 0.08 0.11 0.13 0.17 0.23 0.28 0.29 0.32 0.35 0.36 0.36 0.36 0.37 0.40 0.40 0.39 0.41 0.44 0.47 0.47 0.48 0.50 0.53 0.56 0.57 0.55 0.52 0.47 0.47 0.43 0.37 0.42 0.39 0.26 0.22 0.19 0.18 0.18 0.18 0.19 0.20

GEFSSE_prec_meanprecacc_108.txt.gz
Total_Precipitation_Accumulation
0.01 0.03 0.12 0.15 0.18 0.13 0.09 0.07 0.05 0.04 0.05 0.06 0.07 0.08 0.08 0.08 0.08 0.08 0.09 0.11 0.13 0.16 0.21 0.24 0.29 0.41 0.40 0.25 0.14 0.05 0.02 0.01 0.01 0.01 0.01 0.02 0.04 0.06 0.05 0.05 0.06 0.09 0.12
0.01 0.03 0.09 0.12 0.17 0.14 0.11 0.08 0.04 0.03 0.04 0.06 0.07 0.08 0.09 0.09 0.08 0.10 0.12 0.14 0.15 0.20 0.23 0.26 0.31 0.36 0.30 0.21 0.13 0.04 0.01 0.01 0.00 0.00 0.00 0.01 0.02 0.04 0.03 0.04 0.06 0.10 0.13
0.01 0.03 0.07 0.10 0.14 0.14 0.10 0.07 0.03 0.03 0.04 0.05 0.07 0.09 0.11 0.10 0.10 0.11 0.12 0.15 0.17 0.19 0.22 0.27 0.27 0.25 0.21 0.18 0.11 0.04 0.01 0.01 0.00 0.01 0.01 0.02 0.04 0.07 0.06 0.07 0.09 0.11 0.13
0.00 0.02 0.05 0.08 0.12 0.12 0.09 0.06 0.04 0.03 0.04 0.05 0.06 0.10 0.13 0.11 0.11 0.12 0.12 0.12 0.13 0.14 0.16 0.18 0.14 0.10 0.07 0.06 0.06 0.03 0.01 0.01 0.00 0.01 0.02 0.03 0.05 0.11 0.11 0.10 0.11 0.13 0.14
0.01 0.02 0.05 0.07 0.10 0.11 0.09 0.07 0.05 0.04 0.04 0.04 0.05 0.09 0.13 0.14 0.12 0.10 0.09 0.08 0.07 0.08 0.09 0.08 0.05 0.02 0.02 0.02 0.02 0.02 0.01 0.01 0.00 0.01 0.02 0.04 0.06 0.13 0.13 0.12 0.13 0.14 0.16
0.01 0.02 0.06 0.07 0.09 0.09 0.08 0.06 0.05 0.04 0.04 0.03 0.05 0.07 0.11 0.15 0.14 0.09 0.05 0.04 0.03 0.04 0.04 0.04 0.01 0.01 0.01 0.00 0.00 0.01 0.01 0.01 0.00 0.01 0.02 0.04 0.06 0.13 0.13 0.12 0.12 0.13 0.15
0.02 0.03 0.07 0.09 0.09 0.08 0.08 0.07 0.06 0.04 0.03 0.03 0.04 0.05 0.08 0.13 0.13 0.08 0.03 0.02 0.02 0.02 0.03 0.02 0.01 0.01 0.00 0.00 0.00 0.01 0.01 0.01 0.01 0.01 0.03 0.03 0.06 0.13 0.13 0.11 0.12 0.12 0.13
0.02 0.04 0.08 0.11 0.10 0.09 0.08 0.07 0.05 0.04 0.03 0.03 0.03 0.04 0.06 0.08 0.09 0.07 0.03 0.02 0.02 0.02 0.02 0.01 0.01 0.01 0.01 0.01 0.01 0.01 0.01 0.00 0.01 0.01 0.02 0.02 0.05 0.09 0.09 0.09 0.10 0.11 0.11
0.04 0.05 0.09 0.12 0.12 0.11 0.09 0.07 0.06 0.04 0.03 0.03 0.03 0.04 0.04 0.03 0.05 0.05 0.03 0.03 0.03 0.02 0.02 0.02 0.02 0.02 0.02 0.01 0.01 0.01 0.00 0.00 0.00 0.01 0.01 0.02 0.04 0.07 0.08 0.09 0.11 0.13 0.14
0.09 0.08 0.08 0.10 0.11 0.11 0.09 0.07 0.05 0.04 0.03 0.03 0.02 0.02 0.01 0.01 0.02 0.03 0.02 0.02 0.02 0.02 0.02 0.02 0.02 0.02 0.02 0.02 0.01 0.00 0.00 0.00 0.00 0.00 0.01 0.01 0.03 0.06 0.06 0.09 0.11 0.13 0.15
0.15 0.12 0.09 0.09 0.10 0.09 0.08 0.06 0.05 0.03 0.02 0.02 0.02 0.01 0.00 0.01 0.01 0.01 0.01 0.01 0.01 0.01 0.01 0.01 0.02 0.02 0.01 0.01 0.00 0.00 0.00 0.00 0.00 0.00 0.00 0.01 0.03 0.05 0.05 0.07 0.09 0.10 0.10
0.16 0.14 0.10 0.08 0.08 0.08 0.07 0.06 0.05 0.03 0.02 0.01 0.01 0.01 0.01 0.01 0.01 0.01 0.00 0.00 0.01 0.01 0.01 0.01 0.01 0.01 0.00 0.00 0.00 0.00 0.00 0.00 0.00 0.00 0.00 0.01 0.03 0.04 0.04 0.05 0.05 0.06 0.07
0.15 0.13 0.11 0.09 0.08 0.07 0.06 0.05 0.04 0.03 0.02 0.01 0.01 0.01 0.01 0.01 0.01 0.00 0.00 0.00 0.00 0.00 0.01 0.00 0.00 0.00 0.00 0.00 0.00 0.00 0.00 0.00 0.00 0.00 0.00 0.01 0.02 0.03 0.04 0.04 0.04 0.05 0.06
0.26 0.17 0.13 0.11 0.09 0.07 0.05 0.03 0.03 0.02 0.02 0.01 0.01 0.00 0.00 0.00 0.00 0.00 0.00 0.00 0.00 0.00 0.01 0.00 0.00 0.00 0.00 0.00 0.00 0.00 0.00 0.00 0.00 0.00 0.00 0.00 0.01 0.02 0.03 0.04 0.04 0.05 0.06
0.39 0.28 0.22 0.18 0.13 0.08 0.06 0.03 0.02 0.02 0.01 0.01 0.01 0.00 0.00 0.00 0.00 0.00 0.00 0.00 0.00 0.00 0.00 0.00 0.00 0.00 0.00 0.00 0.00 0.00 0.00 0.00 0.00 0.00 0.00 0.00 0.00 0.01 0.02 0.03 0.04 0.05 0.08
0.47 0.42 0.32 0.26 0.22 0.15 0.09 0.04 0.03 0.02 0.02 0.02 0.01 0.01 0.01 0.00 0.00 0.00 0.00 0.00 0.00 0.00 0.00 0.00 0.00 0.00 0.00 0.00 0.00 0.00 0.00 0.00 0.00 0.00 0.00 0.00 0.00 0.00 0.01 0.02 0.04 0.07 0.10
0.49 0.54 0.47 0.39 0.34 0.22 0.15 0.10 0.06 0.04 0.03 0.03 0.03 0.02 0.01 0.01 0.00 0.00 0.00 0.00 0.00 0.00 0.00 0.00 0.00 0.00 0.00 0.00 0.00 0.00 0.00 0.00 0.00 0.00 0.00 0.00 0.00 0.00 0.00 0.02 0.04 0.07 0.10
0.53 0.57 0.61 0.51 0.42 0.34 0.25 0.18 0.13 0.10 0.09 0.08 0.08 0.06 0.04 0.03 0.02 0.02 0.01 0.00 0.00 0.00 0.00 0.00 0.00 0.00 0.00 0.00 0.00 0.00 0.00 0.00 0.00 0.00 0.00 0.00 0.00 0.00 0.00 0.01 0.03 0.06 0.08
0.51 0.55 0.64 0.58 0.47 0.42 0.42 0.39 0.32 0.26 0.19 0.17 0.14 0.10 0.09 0.08 0.06 0.04 0.02 0.02 0.01 0.01 0.01 0.01 0.01 0.01 0.00 0.00 0.00 0.00 0.00 0.00 0.00 0.00 0.00 0.00 0.00 0.00 0.01 0.01 0.01 0.02 0.04
0.50 0.58 0.64 0.71 0.67 0.65 0.71 0.67 0.55 0.44 0.33 0.30 0.25 0.21 0.19 0.15 0.13 0.10 0.08 0.06 0.04 0.03 0.02 0.02 0.02 0.01 0.01 0.01 0.01 0.01 0.00 0.00 0.00 0.00 0.01 0.01 0.01 0.01 0.01 0.01 0.01 0.01 0.02
0.46 0.52 0.59 0.67 0.75 0.72 0.65 0.59 0.49 0.42 0.45 0.46 0.43 0.41 0.35 0.29 0.24 0.18 0.14 0.12 0.08 0.06 0.05 0.05 0.04 0.03 0.03 0.02 0.02 0.02 0.00 0.00 0.01 0.01 0.01 0.01 0.01 0.02 0.02 0.02 0.02 0.02 0.02
0.36 0.39 0.49 0.57 0.68 0.70 0.61 0.63 0.63 0.67 0.69 0.67 0.63 0.52 0.46 0.41 0.35 0.27 0.20 0.18 0.16 0.12 0.09 0.09 0.10 0.08 0.06 0.06 0.07 0.09 0.05 0.02 0.01 0.02 0.02 0.02 0.02 0.03 0.03 0.03 0.03 0.03 0.04
0.26 0.31 0.33 0.42 0.54 0.62 0.72 0.87 0.92 0.89 0.75 0.64 0.55 0.53 0.52 0.51 0.48 0.43 0.36 0.32 0.27 0.23 0.18 0.19 0.19 0.18 0.19 0.20 0.19 0.23 0.21 0.11 0.07 0.03 0.03 0.03 0.03 0.03 0.03 0.03 0.04 0.05 0.05
0.16 0.24 0.30 0.36 0.45 0.53 0.68 0.75 0.76 0.68 0.56 0.50 0.57 0.62 0.63 0.60 0.58 0.54 0.50 0.46 0.41 0.36 0.33 0.34 0.36 0.38 0.38 0.34 0.29 0.27 0.28 0.25 0.26 0.17 0.06 0.04 0.05 0.04 0.05 0.06 0.06 0.06 0.07
0.11 0.17 0.23 0.32 0.40 0.50 0.58 0.63 0.71 0.66 0.58 0.60 0.63 0.59 0.57 0.57 0.57 0.57 0.55 0.54 0.53 0.51 0.51 0.53 0.52 0.52 0.50 0.46 0.41 0.38 0.38 0.35 0.32 0.34 0.21 0.10 0.10 0.11 0.11 0.10 0.09 0.11 0.12
0.11 0.13 0.18 0.24 0.30 0.37 0.45 0.53 0.57 0.62 0.66 0.67 0.63 0.60 0.58 0.60 0.59 0.56 0.57 0.57 0.60 0.58 0.57 0.59 0.61 0.62 0.62 0.61 0.59 0.53 0.52 0.47 0.42 0.47 0.44 0.29 0.25 0.21 0.19 0.19 0.20 0.21 0.21

GEFSSE_prec_meanprecacc_114.txt.gz
Total_Precipitation_Accumulation
0.01 0.04 0.13 0.15 0.18 0.13 0.09 0.07 0.05 0.05 0.05 0.07 0.08 0.09 0.09 0.09 0.09 0.09 0.10 0.12 0.14 0.18 0.23 0.25 0.30 0.42 0.41 0.26 0.14 0.06 0.03 0.02 0.02 0.02 0.02 0.03 0.05 0.07 0.06 0.05 0.06 0.10 0.14
0.01 0.04 0.11 0.13 0.17 0.14 0.11 0.08 0.05 0.04 0.05 0.07 0.09 0.10 0.11 0.10 0.09 0.11 0.13 0.15 0.17 0.21 0.24 0.27 0.32 0.36 0.31 0.21 0.13 0.04 0.02 0.01 0.01 0.00 0.00 0.01 0.03 0.04 0.04 0.04 0.06 0.12 0.14
0.01 0.04 0.08 0.11 0.15 0.14 0.11 0.07 0.04 0.03 0.05 0.07 0.09 0.11 0.12 0.11 0.11 0.13 0.14 0.17 0.18 0.20 0.23 0.28 0.27 0.25 0.21 0.18 0.11 0.04 0.02 0.01 0.00 0.01 0.01 0.02 0.04 0.07 0.07 0.07 0.10 0.12 0.14
0.01 0.03 0.06 0.09 0.12 0.13 0.09 0.06 0.04 0.04 0.05 0.07 0.08 0.11 0.14 0.13 0.13 0.14 0.14 0.13 0.14 0.15 0.17 0.18 0.14 0.11 0.07 0.07 0.06 0.03 0.01 0.01 0.01 0.01 0.02 0.03 0.06 0.12 0.12 0.11 0.13 0.14 0.15
0.01 0.03 0.06 0.07 0.10 0.11 0.09 0.07 0.05 0.05 0.06 0.07 0.07 0.10 0.15 0.16 0.15 0.13 0.10 0.09 0.08 0.08 0.09 0.08 0.05 0.03 0.02 0.02 0.02 0.02 0.01 0.01 0.00 0.01 0.02 0.04 0.07 0.14 0.14 0.12 0.14 0.15 0.16
0.02 0.03 0.07 0.08 0.09 0.09 0.08 0.07 0.06 0.05 0.05 0.05 0.06 0.08 0.13 0.17 0.17 0.11 0.06 0.04 0.04 0.04 0.04 0.04 0.02 0.01 0.01 0.01 0.01 0.01 0.01 0.01 0.00 0.01 0.03 0.04 0.06 0.14 0.14 0.12 0.13 0.14 0.15
0.04 0.05 0.08 0.10 0.10 0.09 0.08 0.07 0.06 0.05 0.05 0.05 0.05 0.06 0.10 0.15 0.15 0.10 0.04 0.02 0.02 0.02 0.03 0.02 0.01 0.01 0.00 0.01 0.01 0.01 0.01 0.01 0.01 0.01 0.03 0.03 0.06 0.13 0.13 0.11 0.12 0.12 0.13
0.05 0.07 0.11 0.13 0.11 0.09 0.09 0.08 0.06 0.05 0.05 0.05 0.05 0.06 0.08 0.10 0.11 0.08 0.03 0.02 0.02 0.02 0.02 0.02 0.01 0.01 0.01 0.01 0.01 0.01 0.01 0.00 0.01 0.01 0.02 0.02 0.05 0.09 0.10 0.09 0.10 0.11 0.11
0.08 0.08 0.12 0.14 0.13 0.12 0.09 0.08 0.06 0.05 0.05 0.05 0.06 0.05 0.05 0.04 0.06 0.06 0.04 0.03 0.03 0.03 0.02 0.02 0.02 0.02 0.02 0.01 0.01 0.01 0.00 0.00 0.00 0.01 0.01 0.02 0.04 0.07 0.08 0.09 0.11 0.13 0.14
0.17 0.13 0.11 0.13 0.13 0.12 0.10 0.08 0.06 0.05 0.04 0.05 0.04 0.03 0.02 0.01 0.02 0.03 0.02 0.02 0.02 0.02 0.02 0.02 0.02 0.02 0.02 0.02 0.01 0.00 0.00 0.00 0.00 0.00 0.01 0.01 0.03 0.06 0.06 0.09 0.11 0.13 0.15
0.32 0.22 0.15 0.12 0.12 0.11 0.09 0.07 0.06 0.05 0.04 0.04 0.03 0.02 0.01 0.02 0.02 0.01 0.01 0.01 0.01 0.01 0.01 0.01 0.02 0.02 0.01 0.01 0.00 0.00 0.00 0.00 0.00 0.00 0.00 0.01 0.03 0.05 0.05 0.08 0.09 0.10 0.10
0.34 0.27 0.18 0.12 0.11 0.10 0.08 0.08 0.07 0.05 0.04 0.03 0.02 0.02 0.01 0.01 0.01 0.01 0.01 0.01 0.01 0.01 0.01 0.01 0.01 0.01 0.00 0.00 0.00 0.00 0.00 0.00 0.00 0.00 0.00 0.01 0.04 0.04 0.04 0.05 0.05 0.06 0.07
0.38 0.29 0.21 0.15 0.12 0.10 0.07 0.06 0.05 0.04 0.04 0.02 0.01 0.01 0.01 0.01 0.01 0.01 0.01 0.01 0.01 0.00 0.01 0.01 0.00 0.00 0.00 0.00 0.00 0.00 0.00 0.00 0.00 0.00 0.00 0.01 0.02 0.04 0.04 0.04 0.04 0.05 0.06
0.54 0.37 0.25 0.20 0.15 0.11 0.07 0.04 0.04 0.03 0.02 0.02 0.01 0.00 0.01 0.01 0.01 0.01 0.01 0.01 0.01 0.00 0.01 0.00 0.00 0.00 0.00 0.00 0.00 0.00 0.00 0.00 0.00 0.00 0.00 0.00 0.01 0.02 0.03 0.04 0.04 0.05 0.06
0.71 0.51 0.38 0.29 0.21 0.14 0.09 0.05 0.03 0.02 0.01 0.01 0.01 0.00 0.00 0.00 0.00 0.00 0.00 0.00 0.00 0.00 0.00 0.00 0.00 0.00 0.00 0.00 0.00 0.00 0.00 0.00 0.00 0.00 0.00 0.00 0.00 0.01 0.02 0.03 0.04 0.06 0.08
0.81 0.69 0.51 0.40 0.33 0.23 0.14 0.06 0.03 0.02 0.02 0.02 0.02 0.01 0.01 0.01 0.00 0.00 0.00 0.00 0.00 0.00 0.00 0.00 0.00 0.00 0.00 0.00 0.00 0.00 0.00 0.00 0.00 0.00 0.00 0.00 0.00 0.01 0.01 0.02 0.05 0.07 0.11
0.86 0.85 0.70 0.56 0.47 0.33 0.22 0.13 0.07 0.04 0.04 0.03 0.03 0.02 0.01 0.01 0.00 0.00 0.00 0.00 0.00 0.00 0.00 0.00 0.00 0.00 0.00 0.00 0.00 0.00 0.00 0.00 0.00 0.00 0.00 0.00 0.00 0.01 0.00 0.02 0.05 0.08 0.11
0.97 0.89 0.87 0.70 0.57 0.46 0.34 0.23 0.15 0.12 0.10 0.08 0.08 0.06 0.04 0.03 0.02 0.02 0.01 0.01 0.01 0.01 0.01 0.01 0.01 0.01 0.01 0.01 0.01 0.00 0.00 0.00 0.00 0.00 0.00 0.00 0.00 0.00 0.00 0.01 0.04 0.06 0.09
0.96 0.97 1.01 0.84 0.66 0.59 0.54 0.46 0.36 0.28 0.20 0.18 0.14 0.10 0.10 0.08 0.06 0.04 0.03 0.02 0.02 0.02 0.02 0.01 0.01 0.01 0.01 0.01 0.01 0.00 0.00 0.00 0.00 0.00 0.00 0.00 0.00 0.00 0.01 0.01 0.01 0.02 0.05
0.90 0.98 1.06 1.11 0.95 0.90 0.92 0.83 0.64 0.48 0.35 0.31 0.27 0.23 0.20 0.17 0.14 0.12 0.10 0.07 0.05 0.04 0.03 0.03 0.02 0.02 0.01 0.01 0.01 0.01 0.00 0.00 0.00 0.00 0.01 0.01 0.01 0.01 0.01 0.01 0.01 0.01 0.02
0.84 0.88 0.94 1.06 1.13 1.05 0.92 0.80 0.63 0.49 0.49 0.50 0.46 0.44 0.38 0.32 0.28 0.23 0.19 0.16 0.12 0.09 0.07 0.07 0.06 0.05 0.04 0.03 0.03 0.02 0.00 0.00 0.01 0.01 0.01 0.01 0.01 0.02 0.02 0.02 0.02 0.02 0.03
0.70 0.71 0.80 0.87 1.04 1.04 0.91 0.90 0.83 0.79 0.77 0.74 0.69 0.58 0.52 0.48 0.42 0.35 0.27 0.25 0.22 0.16 0.13 0.13 0.13 0.10 0.08 0.08 0.09 0.10 0.06 0.02 0.01 0.02 0.02 0.02 0.02 0.03 0.03 0.03 0.03 0.04 0.04
0.51 0.63 0.64 0.67 0.81 0.96 1.07 1.20 1.25 1.14 0.89 0.73 0.63 0.62 0.63 0.63 0.60 0.52 0.44 0.38 0.34 0.30 0.24 0.25 0.24 0.22 0.22 0.21 0.20 0.25 0.22 0.12 0.07 0.04 0.03 0.03 0.03 0.03 0.03 0.03 0.04 0.05 0.05
0.33 0.47 0.63 0.67 0.72 0.85 1.12 1.17 1.17 1.03 0.78 0.64 0.69 0.75 0.77 0.74 0.70 0.65 0.60 0.55 0.50 0.45 0.40 0.41 0.42 0.43 0.42 0.37 0.32 0.29 0.30 0.27 0.28 0.18 0.07 0.05 0.05 0.04 0.05 0.06 0.06 0.06 0.07
0.24 0.33 0.46 0.63 0.72 0.80 0.89 0.99 1.09 1.03 0.89 0.85 0.85 0.77 0.72 0.70 0.69 0.68 0.67 0.66 0.64 0.62 0.62 0.63 0.60 0.59 0.56 0.51 0.45 0.41 0.40 0.37 0.34 0.36 0.23 0.11 0.11 0.11 0.11 0.10 0.10 0.11 0.13
0.19 0.24 0.33 0.45 0.57 0.66 0.72 0.79 0.84 0.91 0.97 0.93 0.84 0.79 0.77 0.77 0.75 0.72 0.75 0.75 0.77 0.73 0.71 0.72 0.73 0.74 0.73 0.70 0.66 0.58 0.55 0.51 0.44 0.49 0.46 0.31 0.26 0.22 0.21 0.20 0.21 0.22 0.22